Simultaneous Nadir Overpasses (SNOs) Predictions

Prediction of SNOs between GOES-16 and METOP-B Satellite Orbit:

Table of predicted SNOs for the next 14.0 days since TLE Epoch: 11/14/2025
Index Date Time (GOES-16) GOES-16 Lat,Lon METOP-B Lat,Lon Distance(km) Time Diff (sec)
1 11/15/2025 15:46:52 0.04,-104.71 -0.68,-101.40 376.70 80
2 11/17/2025 04:06:00 -0.04,-104.65 -0.37,-106.03 157.52 80
3 11/18/2025 03:42:47 -0.04,-104.65 0.75,-101.06 408.75 80
4 11/19/2025 16:01:48 0.04,-104.71 0.27,-105.67 109.28 80
5 11/20/2025 15:43:54 0.05,-104.71 -0.86,-100.70 457.25 80
6 11/22/2025 04:03:03 -0.05,-104.65 -0.17,-105.33 76.97 80
7 11/23/2025 03:39:48 -0.06,-104.65 0.90,-100.35 489.26 80
8 11/24/2025 15:58:50 0.06,-104.70 0.09,-104.96 29.20 80
9 11/27/2025 04:00:03 -0.07,-104.64 -0.04,-104.62 4.63 80
